{"data":{"norad_id":64431,"epoch":"2026-09-20T12:39:55.907424Z","epoch_age_seconds":132715,"freshness":"FRESH","line1":"1 64431U 25129V   26263.52773041 -.00001133  00000+0 -34068-4 0  9999","line2":"2 64431  70.0010 300.7492 0003100 271.6986  88.3835 15.30410691 70479","mean_motion":15.30410691,"eccentricity":0.00031,"inclination_deg":70.001,"raan_deg":300.7492,"arg_perigee_deg":271.6986,"mean_anomaly_deg":88.3835,"bstar":-3.4068e-5,"rev_number":7047,"period_min":94.092390262844,"perigee_km":472.4617120959,"apogee_km":476.71040039077,"semimajor_km":6852.7230562433,"source":"CELESTRAK","updated_at":"2026-09-21T09:00:35.350035Z"}}